This is the latest recevied weather packets stored in our database for station/object 4S6DRJ-13. If no packets are shown the sender has not sent any weather packets the latest 10 day(s).
| Time | Temp. | Humidity | Pressure | Rain* | Wind** | Luminosity | Snow |
|---|---|---|---|---|---|---|---|
| 1787685906 | 26.11° C | 90% | 1010.6 hPa | 0 mm | 0 m/s | 0 W/m² | - |
| 1787685842 | 26.11° C | 90% | 1010.8 hPa | 0 mm | 0.45 m/s, 149° | 0 W/m² | - |
| 1787685781 | 26.11° C | 90% | 1010.8 hPa | 0 mm | 0.45 m/s, 142° | 0 W/m² | - |
| 1787685720 | 26.11° C | 90% | 1010.7 hPa | 0 mm | 0.89 m/s, 145° | 0 W/m² | - |
| 1787685659 | 26.11° C | 90% | 1010.8 hPa | 0 mm | 0.45 m/s, 157° | 0 W/m² | - |
| 1787685598 | 26.11° C | 90% | 1010.8 hPa | 0 mm | 0 m/s | 0 W/m² | - |
| 1787685537 | 26.11° C | 90% | 1010.9 hPa | 0 mm | 0.45 m/s, 152° | 0 W/m² | - |
| 1787685476 | 26.11° C | 90% | 1010.9 hPa | 0 mm | 1.34 m/s, 170° | 0 W/m² | - |
| 1787685415 | 26.11° C | 90% | 1011 hPa | 0 mm | 0.89 m/s, 189° | 0 W/m² | - |
| 1787685354 | 26.11° C | 90% | 1011 hPa | 0 mm | 0.45 m/s, 113° | 0 W/m² | - |
| 1787685293 | 26.11° C | 89% | 1010.9 hPa | 0 mm | 0.89 m/s, 164° | 0 W/m² | - |
| 1787685232 | 26.11° C | 89% | 1011.1 hPa | 0 mm | 1.34 m/s, 140° | 0 W/m² | - |
| 1787685172 | 26.11° C | 89% | 1011.1 hPa | 0 mm | 0.45 m/s, 121° | 0 W/m² | - |
| 1787685110 | 26.11° C | 89% | 1011.3 hPa | 0 mm | 0.89 m/s, 204° | 0 W/m² | - |
| 1787685049 | 26.67° C | 89% | 1011.2 hPa | 0 mm | 1.79 m/s, 184° | 0 W/m² | - |
| 1787684988 | 26.67° C | 88% | 1011.1 hPa | 0 mm | 1.34 m/s, 186° | 0 W/m² | - |
| 1787684927 | 26.67° C | 88% | 1011.1 hPa | 0 mm | 0.89 m/s, 128° | 0 W/m² | - |
| 1787684866 | 26.67° C | 88% | 1011.2 hPa | 0 mm | 1.34 m/s, 161° | 0 W/m² | - |
| 1787684805 | 26.67° C | 88% | 1011.3 hPa | 0 mm | 0.89 m/s, 159° | 0 W/m² | - |
| 1787684744 | 26.67° C | 87% | 1011.1 hPa | 0 mm | 0.45 m/s, 182° | 0 W/m² | - |
| 1787684683 | 26.67° C | 87% | 1011.1 hPa | 0 mm | 0.89 m/s, 167° | 0 W/m² | - |
| 1787684622 | 26.67° C | 87% | 1011.4 hPa | 0 mm | 1.34 m/s, 123° | 0 W/m² | - |
| 1787684561 | 27.22° C | 86% | 1011.2 hPa | 0 mm | 0.89 m/s, 148° | 0 W/m² | - |
| 1787684500 | 27.22° C | 85% | 1011.1 hPa | 0 mm | 1.34 m/s, 155° | 0 W/m² | - |
| 1787684439 | 27.22° C | 85% | 1011.4 hPa | 0 mm | 1.79 m/s, 190° | 0 W/m² | - |
* Rain latest hour (hover to see other rain measurements)
** Current wind speed in m/s (hover to see current wind gust speed)